Weather History for Melbourne, FL

Change the Weather History Date:

Friday, September 13, 2013

  Actual Average Record
Temperature  
Mean Temperature 81 °F 81 °F  
Max Temperature 89 °F 89 °F 93 °F (1982)
Min Temperature 72 °F 73 °F 66 °F (1978)
Degree Days  
Heating Degree Days 0 0  
Month to date heating degree days 0 0  
Since 1 July heating degree days 0 0  
Cooling Degree Days 16 16  
Month to date cooling degree days 223 208  
Year to date cooling degree days 2672 2434  
Growing Degree Days 30 (Base 50)    
Moisture  
Dew Point 72 °F    
Average Humidity 80    
Maximum Humidity 100    
Minimum Humidity 59    
Precipitation  
Precipitation T in 0.26 in 3.40 in (1976)
Month to date precipitation 0.99 3.22  
Year to date precipitation 32.18 37.07  
Sea Level Pressure  
Sea Level Pressure 29.88 in    
Wind  
Wind Speed 5 mph (ESE)    
Max Wind Speed 12 mph    
Max Gust Speed 21 mph    
Visibility 10 miles    
Events Rain    
T = Trace of Precipitation, MM = Missing Value Source: NWS Daily Summary

Daily Weather History Graph

Daily Weather History Graph

Search for Another Location

Airport:

Trip Planner

Search our weather history database for the weather conditions in past years. The results will help you decide how hot, cold, wet, or windy it might be!

Date:

Astronomy

Sep. 13, 2013 Rise Set
Actual Time 7:06 AM EDT 7:29 PM EDT
Civil Twilight 6:43 AM EDT 7:52 PM EDT
Nautical Twilight 6:15 AM EDT 8:20 PM EDT
Astronomical Twilight 5:47 AM EDT 8:48 PM EDT
Moon 2:56 PM EDT (9/13) 12:56 AM EDT (9/13)
Length of Visible Light 13h 09m
Length of Day
12h 22m
First Quarter, 61% of the Moon is Illuminated
Sep 13
First Quarter
Sep 19
Full
Sep 26
Last Quarter
Oct 4
New
Oct 11
First Quarter

Hourly Weather History & Observations

Time (EDT) Temp. Heat Index Dew Point Humidity Pressure Visibility Wind Dir Wind Speed Gust Speed Precip Events Conditions
12:53 AM 75.0 °F - 73.0 °F 94% 29.92 in 10.0 mi Calm Calm - N/A   Clear
1:53 AM 73.9 °F - 73.0 °F 97% 29.92 in 10.0 mi Calm Calm - N/A   Clear
2:53 AM 75.0 °F - 73.0 °F 94% 29.90 in 10.0 mi WNW 4.6 mph - N/A   Overcast
3:14 AM 73.4 °F - 73.4 °F 100% 29.89 in 9.0 mi NW 4.6 mph - N/A   Scattered Clouds
3:53 AM 73.9 °F - 73.0 °F 97% 29.88 in 10.0 mi Calm Calm - N/A   Clear
4:53 AM 73.0 °F - 72.0 °F 96% 29.88 in 10.0 mi Calm Calm - N/A   Clear
5:53 AM 73.0 °F - 72.0 °F 96% 29.88 in 10.0 mi West 3.5 mph - N/A   Clear
6:53 AM 72.0 °F - 72.0 °F 100% 29.89 in 10.0 mi Calm Calm - N/A   Clear
7:34 AM 73.4 °F - 71.6 °F 94% 29.90 in 9.0 mi Calm Calm - N/A   Scattered Clouds
7:53 AM 73.9 °F - 73.9 °F 100% 29.89 in 9.0 mi Variable 3.5 mph - N/A   Scattered Clouds
8:26 AM 75.2 °F - 75.2 °F 100% 29.90 in 10.0 mi North 3.5 mph - N/A   Clear
8:53 AM 78.1 °F - 75.0 °F 90% 29.90 in 10.0 mi North 3.5 mph - N/A   Partly Cloudy
9:53 AM 82.0 °F 87.9 °F 73.9 °F 76% 29.91 in 10.0 mi Variable 3.5 mph - N/A   Scattered Clouds
10:53 AM 82.9 °F 87.5 °F 71.1 °F 67% 29.91 in 10.0 mi SW 3.5 mph - N/A   Scattered Clouds
11:53 AM 84.9 °F 89.4 °F 70.0 °F 61% 29.90 in 10.0 mi Calm Calm - N/A   Mostly Cloudy
12:53 PM 87.1 °F 93.6 °F 72.0 °F 61% 29.89 in 10.0 mi ENE 6.9 mph - N/A   Scattered Clouds
1:53 PM 89.1 °F 97.0 °F 73.0 °F 59% 29.86 in 10.0 mi ENE 9.2 mph - N/A   Scattered Clouds
2:53 PM 87.1 °F 93.6 °F 72.0 °F 61% 29.85 in 10.0 mi ENE 6.9 mph - N/A   Scattered Clouds
3:53 PM 87.1 °F 92.8 °F 71.1 °F 59% 29.82 in 10.0 mi East 9.2 mph - N/A   Clear
4:53 PM 84.9 °F 90.1 °F 71.1 °F 63% 29.82 in 10.0 mi East 9.2 mph - 0.00 in Rain Light Rain
5:53 PM 84.9 °F 90.1 °F 71.1 °F 63% 29.82 in 10.0 mi East 10.4 mph - 0.00 in Rain Light Rain
6:53 PM 82.9 °F 88.0 °F 72.0 °F 69% 29.83 in 10.0 mi ESE 9.2 mph - N/A   Clear
7:53 PM 82.0 °F 86.7 °F 72.0 °F 71% 29.83 in 10.0 mi SE 6.9 mph - N/A   Clear
8:53 PM 81.0 °F 85.2 °F 72.0 °F 74% 29.86 in 10.0 mi SSE 4.6 mph - N/A   Clear
9:53 PM 81.0 °F 85.2 °F 72.0 °F 74% 29.86 in 10.0 mi SSE 4.6 mph - N/A   Clear
10:53 PM 80.1 °F 84.2 °F 73.0 °F 79% 29.87 in 10.0 mi South 3.5 mph - N/A   Clear
11:53 PM 79.0 °F - 73.0 °F 82% 29.87 in 10.0 mi South 5.8 mph - N/A   Clear